Wind_Speed
16 15 14 14 15 15 15 15 15 15 15 17 20 22 24 26 30 33 34 34 34 35 35 33 32 30 27 25 22 22 20 18 16 15 15 15 15 15 16 16 16 17 17 18
14 13 13 14 14 14 15 16 15 15 16 17 18 20 22 24 26 28 31 32 33 34 34 33 33 32 27 26 23 22 21 19 19 18 17 17 16 16 16 17 17 17 18 19
13 12 13 14 14 15 15 16 16 16 17 18 17 19 20 21 23 25 28 30 32 31 32 31 32 31 28 24 24 23 22 23 21 19 18 17 17 18 19 19 20 20 20 20
13 13 14 14 14 15 15 16 17 18 18 18 20 20 21 21 22 24 27 29 30 31 29 29 29 27 26 25 25 25 22 22 21 20 20 20 20 19 20 21 21 21 21 21
12 13 14 15 14 16 16 16 19 20 20 21 22 22 23 22 24 24 25 28 30 30 29 28 28 27 26 25 23 23 23 22 21 21 22 21 20 20 21 21 21 20 20 20
12 12 13 14 14 16 17 17 18 20 20 21 21 23 23 22 22 25 26 26 28 29 28 28 28 27 26 25 24 25 24 24 24 23 23 23 23 24 23 23 23 22 23 22
12 11 12 13 14 14 18 17 17 18 19 19 19 23 24 23 23 24 24 24 26 26 26 26 27 26 26 27 27 27 26 25 23 23 24 24 25 25 25 24 24 24 24 24
13 11 11 12 13 12 15 16 16 15 16 16 18 21 21 22 22 23 23 24 25 24 24 24 26 27 27 27 28 29 27 26 25 25 25 25 26 27 27 26 25 26 26 26
14 11 9 11 11 11 13 15 15 16 16 16 17 18 19 20 21 22 23 24 23 23 25 26 26 27 28 28 28 29 28 27 27 27 27 27 28 29 29 29 29 29 29 30
11 10 8 9 10 10 11 13 15 16 16 15 15 17 18 20 20 21 22 24 24 24 24 25 25 26 27 26 26 26 28 29 29 29 30 30 31 31 31 31 31 33 33 33
11 10 7 7 9 10 12 14 15 14 14 16 16 17 18 19 19 19 20 21 23 24 24 23 24 25 26 26 26 26 28 29 30 30 31 31 32 33 33 34 34 34 35 36
9 8 6 6 8 10 11 13 14 14 14 15 16 17 17 18 18 17 17 19 21 23 24 24 24 25 26 27 27 28 28 30 31 32 32 33 34 34 35 35 35 36 37 37
7 6 4 5 7 10 11 12 12 13 14 15 16 17 17 18 16 16 15 16 19 20 22 23 23 24 26 27 28 29 30 31 31 32 33 34 34 35 36 36 37 38 38 38
5 6 5 6 7 9 10 12 12 12 14 16 16 18 18 19 17 15 16 15 16 19 21 21 22 24 25 26 28 29 30 31 32 33 34 34 35 36 36 37 38 38 39 39
6 6 6 7 9 10 10 11 12 13 13 15 17 18 19 19 19 17 17 16 17 17 19 21 22 23 25 27 28 29 31 32 32 33 34 34 35 36 36 36 37 37 38 38
6 6 6 6 8 9 11 11 10 11 13 14 16 17 18 19 19 19 18 17 17 17 18 20 22 23 25 26 27 29 29 30 30 31 32 32 33 34 34 34 35 35 36 36
5 3 4 5 6 7 9 9 7 8 11 12 14 15 16 17 18 17 16 16 16 18 19 20 21 23 24 24 26 26 27 28 28 29 29 29 30 31 31 31 32 32 32 32
3 3 3 3 3 3 4 6 7 9 11 12 14 16 17 18 17 16 16 16 17 18 19 20 21 22 23 24 25 25 26 26 26 26 26 27 27 28 28 27 28 28 29 30
3 3 2 2 2 2 4 6 8 9 11 13 14 15 16 15 15 15 15 16 16 17 17 19 20 21 21 22 22 23 23 24 24 25 25 25 25 26 26 26 27 27 28 29
2 3 3 4 5 6 8 9 10 11 12 13 14 14 15 14 14 13 14 14 15 15 16 18 19 19 20 20 20 21 21 21 21 22 23 23 24 24 25 26 26 26 26 27
1 3 4 5 6 7 10 11 12 12 13 14 14 14 14 14 13 13 13 12 13 13 14 14 15 15 16 17 17 18 19 19 20 20 21 22 22 23 23 23 23 24 24 24
1 2 4 6 7 9 11 12 13 13 14 14 14 14 14 13 13 12 11 11 11 11 11 12 12 13 14 14 15 16 17 18 19 19 20 20 20 21 21 21 21 21 21 21
2 3 5 7 8 9 11 13 13 14 14 14 14 14 13 13 12 11 11 10 9 9 10 10 11 11 12 13 13 14 15 17 17 18 18 18 18 18 18 18 18 18 18 18
3 3 5 6 8 9 11 12 13 14 15 15 15 14 14 13 11 10 10 9 9 9 9 9 9 10 10 11 12 13 14 15 15 16 16 16 17 16 17 17 17 16 16 15
3 3 5 7 8 9 11 12 14 15 16 16 16 15 14 13 12 10 9 8 8 8 8 8 8 8 9 10 11 12 13 14 14 14 14 14 15 15 15 14 14 14 14 14
3 4 5 7 8 10 12 13 15 16 16 16 16 15 14 13 12 11 10 9 9 9 9 9 8 9 9 10 11 11 11 11 11 11 11 12 12 13 12 12 12 12 12 12
Wind_Direction
278 268 260 257 255 249 242 238 230 217 212 223 229 229 225 227 228 231 235 239 243 246 252 255 256 257 255 252 252 250 245 235 230 232 234 238 239 241 246 250 254 256 260 263
272 262 256 249 247 243 236 231 224 211 210 222 228 229 225 225 227 231 233 237 243 246 248 253 254 255 254 252 248 251 247 239 237 237 241 244 247 247 250 254 257 261 266 270
272 262 256 249 244 240 233 232 224 217 215 218 226 231 229 229 230 233 235 238 242 246 247 252 255 253 253 247 245 247 248 243 242 244 247 251 252 256 256 258 260 264 268 273
276 262 254 249 244 238 233 230 227 220 215 219 224 232 232 233 235 236 237 240 244 247 249 251 258 256 254 253 253 251 249 252 250 251 252 255 256 262 262 262 263 267 270 273
285 270 256 248 245 240 236 235 230 225 224 223 226 233 234 237 240 241 242 244 245 246 251 254 258 258 256 256 255 257 259 258 252 253 255 256 262 269 271 268 269 277 280 282
291 278 268 258 251 246 239 240 237 232 232 230 229 236 237 237 241 242 244 247 249 250 251 254 257 256 258 259 259 261 263 261 258 257 259 262 267 272 275 275 278 281 283 284
297 282 272 260 252 245 240 241 239 236 234 233 233 239 241 242 241 242 244 247 251 253 254 254 254 256 258 259 261 262 262 261 258 258 262 266 269 274 276 280 284 283 284 283
301 289 271 261 253 245 234 233 234 236 230 230 233 240 245 247 246 248 248 250 252 252 253 254 257 257 256 257 259 260 263 264 261 263 266 270 275 278 279 281 281 281 284 284
301 299 271 259 252 236 224 226 229 237 234 237 242 248 251 251 254 254 253 252 252 253 251 251 254 254 255 258 259 258 261 265 267 269 270 272 275 277 279 279 279 280 282 282
303 300 282 260 242 227 222 218 227 234 238 242 248 257 259 256 264 264 259 252 252 254 253 252 253 254 254 257 259 259 261 264 266 268 270 271 274 276 277 278 280 281 282 282
303 300 280 254 228 220 221 221 226 232 241 253 263 269 271 274 273 265 259 252 249 250 253 255 254 254 255 256 258 259 260 263 265 267 268 271 273 274 276 278 279 279 280 282
306 306 281 257 238 223 223 224 231 238 247 262 272 280 284 290 286 280 265 252 250 251 254 255 257 256 256 257 258 260 262 264 266 268 270 271 272 274 275 277 278 279 281 282
301 304 277 240 225 215 224 234 244 250 256 264 275 288 288 293 294 285 280 263 255 253 255 257 258 258 259 260 261 263 264 265 267 269 271 272 274 275 276 277 278 280 281 282
301 301 269 242 227 224 229 234 245 257 265 269 278 288 293 298 301 289 282 274 265 259 256 258 260 261 262 263 264 265 266 267 268 270 272 274 275 276 277 278 279 280 282 283
306 297 268 246 240 235 235 235 244 257 267 276 284 289 293 297 298 291 285 281 278 269 264 263 265 265 265 266 265 267 269 270 270 272 274 274 275 277 278 279 280 282 283 284
308 296 267 247 239 243 241 242 254 256 270 280 286 288 292 295 298 296 293 287 281 275 270 267 266 266 266 267 268 269 270 270 272 274 275 277 277 278 279 281 282 283 284 284
332 305 281 257 251 248 239 250 275 296 297 293 294 296 297 297 297 295 291 286 282 279 274 274 271 270 269 270 271 273 273 273 274 274 276 278 279 281 281 281 282 283 284 285
349 327 288 263 257 247 262 275 304 313 313 305 300 300 298 298 298 295 291 285 281 279 275 273 272 270 270 271 274 276 277 275 274 276 278 279 280 281 282 282 283 283 284 283
3 360 323 317 302 327 327 331 328 325 320 316 310 306 305 304 300 298 294 288 283 279 276 274 273 273 273 273 274 275 275 275 275 275 276 278 279 281 281 282 282 284 285 286
25 20 359 352 356 349 348 343 338 330 328 323 317 314 311 311 308 305 303 296 287 281 277 276 276 276 276 275 274 273 274 274 276 277 278 278 279 280 281 282 284 285 286 286
7 10 9 11 5 0 351 349 344 341 337 331 326 323 322 321 321 317 311 302 294 288 283 283 281 278 278 278 277 275 275 275 276 277 277 279 280 282 284 286 286 287 287 287
50 26 18 10 5 1 358 355 352 349 344 339 335 334 333 330 326 322 316 308 302 296 293 292 287 282 281 281 279 278 279 278 277 277 279 281 283 285 286 286 287 288 289 290
76 40 26 19 12 5 0 358 356 355 353 350 347 346 344 339 334 332 327 319 313 309 307 303 294 287 285 283 282 282 282 282 280 279 281 282 285 288 288 288 289 290 292 292
92 48 33 24 16 9 5 2 1 1 359 358 356 354 352 350 346 343 339 334 328 324 320 314 305 298 292 288 286 285 285 285 284 283 285 285 287 289 288 288 289 291 293 295
100 58 36 27 21 13 9 7 5 5 4 4 3 1 360 359 360 358 355 351 347 344 339 329 317 308 305 302 299 297 295 294 292 292 291 289 290 290 289 288 290 294 298 300
102 67 44 33 24 19 16 12 11 10 9 9 10 11 13 15 14 10 6 2 0 358 354 347 338 329 324 319 314 310 308 305 302 301 300 299 296 294 292 292 294 296 300 304
Height
5799 5800 5799 5799 5799 5800 5799 5800 5802 5803 5804 5804 5805 5808 5811 5814 5817 5821 5824 5827 5829 5831 5833 5834 5834 5834 5834 5835 5838 5839 5838 5840 5843 5845 5847 5848 5849 5850 5850 5850 5850 5851 5851 5851
5796 5795 5795 5794 5794 5795 5796 5797 5798 5800 5801 5800 5802 5804 5807 5809 5812 5816 5819 5822 5824 5825 5827 5828 5829 5830 5829 5830 5832 5834 5836 5836 5838 5840 5842 5843 5844 5845 5845 5845 5845 5845 5845 5845
5791 5792 5790 5790 5790 5791 5792 5793 5794 5796 5797 5797 5799 5801 5803 5805 5808 5811 5814 5817 5819 5819 5820 5822 5823 5824 5824 5825 5827 5829 5830 5830 5832 5834 5836 5838 5839 5839 5840 5840 5841 5840 5840 5840
5787 5787 5786 5786 5786 5787 5787 5789 5790 5791 5793 5794 5796 5797 5800 5802 5804 5806 5808 5811 5813 5815 5816 5817 5818 5818 5819 5820 5822 5822 5822 5825 5827 5829 5831 5832 5833 5833 5834 5834 5835 5835 5835 5834
5783 5782 5781 5781 5782 5783 5783 5785 5786 5787 5789 5791 5792 5794 5797 5798 5800 5802 5804 5806 5808 5810 5811 5812 5813 5813 5814 5816 5817 5818 5820 5821 5822 5824 5826 5827 5827 5827 5828 5828 5828 5828 5829 5828
5780 5779 5778 5778 5779 5779 5780 5781 5782 5783 5785 5787 5790 5791 5792 5795 5796 5798 5800 5801 5802 5803 5806 5807 5808 5810 5811 5812 5813 5814 5815 5816 5817 5819 5820 5821 5821 5821 5821 5821 5821 5822 5823 5822
5776 5776 5775 5774 5774 5775 5776 5778 5779 5780 5782 5784 5786 5786 5788 5790 5792 5793 5794 5796 5796 5798 5800 5801 5802 5804 5806 5807 5808 5809 5809 5810 5812 5813 5814 5814 5815 5816 5816 5816 5816 5816 5815 5814
5772 5772 5772 5771 5771 5771 5772 5774 5776 5778 5779 5781 5782 5782 5784 5786 5787 5787 5788 5789 5791 5792 5794 5796 5797 5798 5800 5801 5802 5803 5803 5804 5805 5806 5807 5808 5809 5809 5809 5809 5809 5808 5808 5807
5769 5769 5768 5767 5767 5768 5769 5771 5773 5775 5776 5777 5778 5779 5780 5781 5782 5782 5783 5784 5785 5786 5788 5789 5791 5792 5794 5795 5795 5796 5798 5798 5799 5800 5801 5801 5802 5802 5801 5801 5801 5801 5800 5800
5767 5766 5766 5766 5766 5766 5767 5769 5770 5772 5773 5773 5775 5775 5775 5776 5777 5778 5778 5779 5780 5781 5782 5783 5785 5786 5788 5789 5790 5791 5792 5792 5793 5794 5794 5795 5795 5794 5794 5794 5793 5793 5792 5791
5765 5764 5764 5764 5764 5764 5766 5767 5767 5769 5770 5771 5772 5774 5772 5772 5772 5772 5772 5773 5774 5775 5777 5777 5779 5780 5782 5783 5784 5785 5786 5786 5787 5787 5787 5788 5787 5786 5786 5786 5785 5784 5783 5782
5764 5763 5762 5762 5762 5763 5763 5764 5766 5767 5768 5768 5769 5772 5768 5768 5767 5766 5766 5767 5768 5769 5771 5772 5773 5774 5775 5776 5777 5778 5779 5779 5779 5779 5779 5779 5779 5778 5778 5777 5776 5775 5774 5772
5762 5762 5761 5761 5762 5762 5761 5762 5763 5764 5765 5765 5765 5768 5765 5764 5763 5763 5762 5762 5763 5764 5766 5767 5768 5769 5770 5770 5771 5771 5772 5772 5772 5772 5771 5771 5770 5769 5769 5768 5767 5765 5764 5762
5761 5760 5761 5760 5759 5759 5760 5760 5761 5762 5762 5762 5762 5763 5762 5760 5760 5759 5759 5759 5759 5759 5760 5761 5762 5763 5764 5764 5764 5764 5764 5764 5764 5763 5763 5763 5762 5760 5759 5758 5757 5755 5754 5752
5759 5759 5758 5758 5758 5758 5758 5759 5760 5760 5760 5760 5760 5759 5758 5757 5756 5756 5756 5755 5755 5755 5755 5756 5756 5756 5757 5757 5757 5757 5756 5756 5756 5755 5754 5753 5752 5751 5750 5749 5747 5745 5744 5742
5757 5757 5756 5756 5756 5756 5757 5758 5758 5758 5758 5757 5757 5756 5754 5753 5752 5752 5751 5751 5751 5750 5750 5750 5750 5750 5750 5749 5749 5749 5748 5748 5747 5747 5746 5744 5743 5742 5741 5739 5738 5736 5734 5732
5755 5755 5755 5755 5754 5755 5756 5756 5756 5755 5755 5754 5753 5753 5750 5749 5748 5747 5747 5746 5746 5745 5745 5744 5744 5743 5742 5742 5742 5741 5740 5740 5739 5738 5737 5736 5735 5733 5732 5730 5729 5727 5725 5723
5755 5755 5754 5754 5755 5754 5756 5754 5754 5752 5751 5750 5749 5748 5746 5745 5744 5742 5741 5740 5740 5739 5738 5738 5737 5736 5735 5735 5734 5733 5733 5732 5731 5730 5729 5728 5727 5726 5724 5722 5721 5719 5717 5715
5755 5755 5754 5754 5753 5753 5753 5752 5751 5750 5748 5746 5745 5743 5741 5739 5738 5737 5736 5735 5734 5733 5732 5731 5730 5729 5728 5728 5727 5726 5726 5725 5724 5723 5722 5721 5720 5718 5717 5715 5713 5711 5709 5707
5755 5755 5755 5753 5752 5752 5752 5750 5748 5748 5745 5743 5741 5739 5737 5735 5733 5732 5730 5729 5728 5727 5726 5725 5724 5723 5722 5722 5721 5720 5719 5718 5717 5716 5715 5714 5713 5711 5709 5708 5706 5704 5702 5700
5755 5754 5754 5753 5752 5751 5750 5747 5746 5745 5743 5740 5737 5735 5732 5730 5729 5728 5726 5724 5723 5722 5721 5720 5718 5717 5717 5716 5715 5714 5713 5712 5711 5710 5709 5707 5706 5704 5702 5701 5699 5697 5695 5693
5754 5754 5753 5752 5751 5752 5748 5746 5744 5742 5739 5736 5733 5731 5729 5727 5725 5723 5721 5720 5719 5717 5716 5715 5714 5713 5712 5711 5710 5709 5708 5707 5705 5704 5703 5701 5700 5698 5696 5695 5693 5691 5689 5687
5753 5754 5753 5752 5752 5749 5747 5745 5743 5740 5737 5734 5731 5728 5726 5724 5721 5719 5718 5716 5715 5714 5713 5711 5710 5709 5708 5707 5706 5704 5703 5701 5700 5699 5697 5696 5694 5693 5691 5689 5688 5686 5684 5682
5753 5753 5752 5751 5750 5748 5747 5744 5741 5739 5736 5732 5729 5726 5724 5721 5719 5717 5715 5714 5712 5711 5710 5708 5707 5706 5704 5703 5702 5700 5698 5697 5695 5693 5692 5691 5689 5688 5686 5685 5683 5681 5680 5678
5753 5753 5752 5751 5750 5748 5746 5744 5741 5738 5735 5731 5728 5725 5722 5720 5718 5716 5714 5712 5711 5709 5707 5706 5704 5703 5701 5699 5698 5696 5694 5693 5691 5689 5688 5686 5685 5683 5682 5680 5679 5677 5676 5674
5753 5753 5752 5751 5750 5749 5746 5743 5741 5738 5734 5731 5728 5725 5722 5719 5717 5715 5713 5711 5710 5708 5706 5704 5702 5700 5698 5697 5695 5693 5691 5689 5687 5686 5684 5682 5681 5679 5678 5676 5675 5674 5672 5671